{"data":{"norad_id":59239,"epoch":"2026-09-18T23:46:45.673824Z","epoch_age_seconds":289142,"freshness":"STALE","line1":"1 59239U 24049J   26261.99080641  .00000482  00000+0  27039-4 0  9999","line2":"2 59239  43.0024 121.0274 0000984 281.1009  78.9732 15.27580338142096","mean_motion":15.27580338,"eccentricity":9.84e-5,"inclination_deg":43.0024,"raan_deg":121.0274,"arg_perigee_deg":281.1009,"mean_anomaly_deg":78.9732,"bstar":2.7039e-5,"rev_number":14209,"period_min":94.266727855723,"perigee_km":482.37294333398,"apogee_km":483.7232245585,"semimajor_km":6861.1850839462,"source":"CELESTRAK","updated_at":"2026-09-21T09:00:34.075831Z"}}